Location: Newark
(33.2404°N, 35.6778°E)
Time: 07:04:30
(UTC+00:00)

Hubble Space Telescope - Pass Details

Date: 02 February 2020
Orbit: 536 x 540 km, 28.5° (Epoch: 20 February)

Event Time Altitude Azimuth Distance (km) Brightness Sun altitude
Exits shadow 01:54:03 14° 120° (ESE) 1,521 3.6 -33.4°
Drops below altitude 10° 01:54:57 10° 110° (ESE) 1,777 4.1 -33.2°
Sets 01:57:34 0° 96° (E) 2,669 5.4 -32.7°
